COSMOS 252 DEB *, 4421

Orbit data source: Space-Track

COSMOS 252 DEB *, 4421 is space debris in LEO originally from a launch on Fri, 01 Nov 1968 UTC launched from the Tyuratam Missile And Space Complex (TTMTR). Debris objects in space refer to the collection of defunct objects orbiting the Earth. Examples of debris include non-operational satellites, rocket bodies, and fragments generated from explosions, collisions, or faulty payload assembly.

Loading next visibility...
Identifier
4421, 1968-097CF
Orbit
LEO
Country
Flag of CISCIS
Related business
Manufacturer
Unknown
Mission
Spacecraft
Bus & Motor
Unknown
Mass
Unknown
Launch date (UTC)
1968-11-01 (57 years ago)
Launch vehicle
Unknown
Launch site
Tyuratam Missile And Space Complex (TTMTR)
Object type
Payload
Rocket body
Debris
Shape & HBR
Unknown shape, 0.1 m
Radar Cross Section
Small (<0.1 m²)

Expand to show TLE details & history
Last TLE update: 21 hours ago

TLE from 21 hours ago
0 COSMOS 252 DEB *
1 04421U 68097CF  25287.72969186  .00006642  00000-0  97355-3 0  9993
2 04421  62.7307 181.6105 0656598 138.6656 226.6053 13.86945131525348
Epoch: 2025-10-14T17:30Z
TLE epoch observation values (Epoch: 2025-10-14T17:30:45.376Z)
Latitude
0.00003°
Longitude
-104.59249°
Altitude
1,286.816 km
Speed
7.041 km/s
True Right ascension
12h 06m 26s
True Declination
0° 00' 00"
Sunlit
Object was in daylight at epoch
Visualization orbit readout
Latitude
Unknown
Longitude
Unknown
Altitude
Unknown
Speed
Unknown
Apparent Right ascension
Unknown
Apparent Declination
Unknown
Sunlit
N/A
Visualization observer readout
Local Sidereal Time
09:29:46
Azimuth
Unknown
Elevation
Unknown
Doppler factor
Unknown
Orbital elements
Apogee altitude
1,418.631 km
Perigee altitude
457.848 km
Semi-major axis
7,316.376 km
Eccentricity
0.06566
Inclination
62.7307°
RAAN
181.6105°
Arg. of periapsis
138.6656°
True anomaly
221.43739°
Mean anomaly
226.6053°
Eccentric anomaly
223.99234°
Mean motion
3.46816 °/min
Orbital period
103.8 mins
BSTAR
0.00097355
Loading maneuver chart data...
Computing Atmospheric mass density...

Documentation

Showing up to 5 results
|